Skip Page Navigation
NASA JPL Caltech
NASA Logo - Jet Propulsion Laboratory + View the NASA Portal
+ Near-Earth Object (NEO) Program
Search JPL
JPL Home Earth Solar System Stars & Galaxies Technology
JPL Solar System Dynamics
BODIES ORBITS EPHEMERIDES TOOLS PHYSICAL DATA DISCOVERY FAQ SITE MAP
JPL Small-Body Database Browser
Search: [ help ]  
40441 Jungmann (1999 RW34)
Classification: Main-belt Asteroid          SPK-ID: 2040441
Ephemeris | Orbit Diagram | Orbital Elements | Physical Parameters | Discovery Circumstances | Close-Approach Data ]

[ show orbit diagram ]
Orbital Elements at Epoch 2457600.5 (2016-Jul-31.0) TDB
Reference: JPL 14 (heliocentric ecliptic J2000)
 Element Value Uncertainty (1-sigma)   Units 
e .2576644360356282 9.0158e-08  
a 2.543172920347655 1.2598e-08 au
q 1.887887704085195 2.3568e-07 au
i 6.884499007740318 6.9665e-06 deg
node 186.9056747617174 3.4413e-05 deg
peri 154.4794234168957 3.5996e-05 deg
M 73.10987357306807 8.272e-06 deg
tp 2457299.659851173244
(2015-Oct-04.15985117)
3.3206e-05 JED
period 1481.365625251583
4.06
1.1007e-05
3.014e-08
d
yr
n .243019004804341 1.8058e-09 deg/d
Q 3.198458136610115 1.5844e-08 au
  Orbit Determination Parameters
   # obs. used (total)      924  
   data-arc span      8854 days (24.24 yr)  
   first obs. used      1991-10-06  
   last obs. used      2016-01-02  
   planetary ephem.      DE431  
   SB-pert. ephem.      SB431-BIG16  
   condition code      0  
   fit RMS      .52672  
   data source      ORB  
   producer      Otto Matic  
   solution date      2016-Feb-25 22:25:51  

Additional Information
 Earth MOID = .881954 au 
 Jupiter MOID = 2.22732 au 
 T_jup = 3.387 
[ show covariance matrix ]

Ephemeris | Orbit Diagram | Orbital Elements | Physical Parameters | Discovery Circumstances | Close-Approach Data ]

Physical Parameter Table
Parameter Symbol Value Units Sigma Reference Notes
absolute magnitude H 15.3 mag n/a MPO309467  

40441 Jungmann           Discovered 1999 Sept. 11 by P. Pravec and P. Kušnirák at Ondřejov.
Josef Jungmann (1773-1847) was a Czech poet, publicist and literary historian and author of the Czech-German Dictionary. He promoted the Czech language in official correspondence and in education. His activity was of fundamental importance for the Czech national consciousness.
NOTE: some special characters may not display properly (any characters within {} are an attempt to place the proper accent above a character)
Reference: 20030806/MPCPages.arcLast Updated: 2003-10-02

[ show close-approach data ]
Alternate Designations
 1999 RW34 = 1998 HM66 
Ephemeris | Orbit Diagram | Orbital Elements | Physical Parameters | Discovery Circumstances | Close-Approach Data ]
ABOUT SSD CREDITS/AWARDS PRIVACY/COPYRIGHT GLOSSARY LINKS
FirstGov 2016-Apr-29 01:56 UT
(server date/time)  
NASA Home Page
Site Manager:   Ryan S. Park
Webmaster  Alan B. Chamberlin